Tracking 29892 objects as of 21-Nov-2024
HD Live streaming from Space Station
objects crossing your sky now

CZ-2D DEB

Track CZ-2D DEB now!
10-day predictions


NORAD ID: 43490
Int'l Code: 2018-048E
Perigee: 594.4 km
Apogee: 633.0 km
Inclination: 98.2 °
Period: 96.8 minutes
Semi major axis: 6984 km
RCS: Unknown
Launch date: June 2, 2018
Source: People's Republic of China (PRC)
Launch site: ()

Note: This is SATELLITE DEBRIS
Your satellite tracking list
Your tracking list is empty




NASA's NSSDC Master Catalog

Two Line Element Set (TLE):
1 43490U 18048E   24325.32232805  .00010366  00000-0  11483-2 0  9997
2 43490  98.2083  95.5722 0027600 228.1741 131.7117 14.87236990348591
Source of the keplerian elements: AFSPC